Saint Bonnet de Bellac- Haute Vienne - France
Donnes mto: lundi, 27/08/2012
Date Horaire Temp. E. Hum. E. P.atmo. Pluie Vent Direction Direction Ensoleilleme Solaire P. de rose Temp au vent Rafales
27/08/2012 00:00 14,8 C 66 % 1021,5 hPa 0,0 mm 0,0 km/h (0 Bft) E 90 0 min 0 W/m 8,5 C 14,8 C 0,0 km/h (0 Bft)
27/08/2012 00:10 14,6 C 67 % 1021,5 hPa 0,0 mm 0,0 km/h (0 Bft) E-NE 67 0 min 0 W/m 8,5 C 14,6 C 0,0 km/h (0 Bft)
27/08/2012 00:20 14,5 C 68 % 1021,4 hPa 0,0 mm 0,0 km/h (0 Bft) N-NE 22 0 min 0 W/m 8,7 C 14,5 C 0,0 km/h (0 Bft)
27/08/2012 00:30 14,1 C 68 % 1021,3 hPa 0,0 mm 0,0 km/h (0 Bft) N-NE 22 0 min 0 W/m 8,3 C 14,1 C 0,0 km/h (0 Bft)
27/08/2012 00:40 13,6 C 69 % 1021,2 hPa 0,0 mm 0,0 km/h (0 Bft) NE 45 0 min 0 W/m 8,0 C 13,6 C 0,0 km/h (0 Bft)
27/08/2012 00:50 13,3 C 70 % 1021,1 hPa 0,0 mm 0,0 km/h (0 Bft) NE 45 0 min 0 W/m 7,9 C 13,3 C 0,0 km/h (0 Bft)
27/08/2012 01:00 12,9 C 70 % 1021,0 hPa 0,0 mm 0,0 km/h (0 Bft) NE 45 0 min 0 W/m 7,6 C 12,9 C 0,0 km/h (0 Bft)
27/08/2012 01:10 12,8 C 72 % 1021,0 hPa 0,0 mm 0,0 km/h (0 Bft) NE 45 0 min 0 W/m 7,9 C 12,8 C 0,0 km/h (0 Bft)
27/08/2012 01:20 12,6 C 73 % 1020,9 hPa 0,0 mm 0,0 km/h (0 Bft) NE 45 0 min 0 W/m 7,9 C 12,6 C 0,0 km/h (0 Bft)
27/08/2012 01:30 12,3 C 73 % 1021,0 hPa 0,0 mm 0,0 km/h (0 Bft) NE 45 0 min 0 W/m 7,6 C 12,3 C 0,0 km/h (0 Bft)
27/08/2012 01:40 12,0 C 75 % 1021,0 hPa 0,0 mm 0,0 km/h (0 Bft) S-SE 157 0 min 0 W/m 7,7 C 12,0 C 0,0 km/h (0 Bft)
27/08/2012 01:50 11,8 C 76 % 1021,0 hPa 0,0 mm 0,0 km/h (0 Bft) S-SE 157 0 min 0 W/m 7,7 C 11,8 C 0,0 km/h (0 Bft)
27/08/2012 02:00 11,6 C 76 % 1021,0 hPa 0,0 mm 0,0 km/h (0 Bft) S-SE 157 0 min 0 W/m 7,5 C 11,6 C 0,0 km/h (0 Bft)
27/08/2012 02:10 11,4 C 76 % 1020,8 hPa 0,0 mm 0,0 km/h (0 Bft) E-SE 112 0 min 0 W/m 7,3 C 11,4 C 0,0 km/h (0 Bft)
27/08/2012 02:20 11,4 C 77 % 1020,7 hPa 0,0 mm 0,0 km/h (0 Bft) S-SE 157 0 min 0 W/m 7,5 C 11,4 C 0,0 km/h (0 Bft)
27/08/2012 02:30 11,4 C 77 % 1020,6 hPa 0,0 mm 0,0 km/h (0 Bft) E-SE 112 0 min 0 W/m 7,5 C 11,4 C 0,0 km/h (0 Bft)
27/08/2012 02:40 11,4 C 77 % 1020,6 hPa 0,0 mm 0,7 km/h (0 Bft) E-SE 112 0 min 0 W/m 7,5 C 11,4 C 4,3 km/h (1 Bft)
27/08/2012 02:50 11,4 C 78 % 1020,4 hPa 0,0 mm 2,9 km/h (1 Bft) E 90 0 min 0 W/m 7,7 C 11,4 C 4,0 km/h (1 Bft)
27/08/2012 03:02 11,4 C 78 % 1020,3 hPa 0,0 mm 1,1 km/h (1 Bft) E 90 0 min 0 W/m 7,7 C 11,4 C 3,2 km/h (1 Bft)
27/08/2012 03:10 11,2 C 79 % 1020,2 hPa 0,0 mm 2,2 km/h (1 Bft) E-SE 112 0 min 0 W/m 7,7 C 11,2 C 3,2 km/h (1 Bft)
27/08/2012 03:20 11,1 C 80 % 1020,1 hPa 0,0 mm 6,1 km/h (2 Bft) E 90 0 min 0 W/m 7,8 C 11,1 C 8,6 km/h (2 Bft)
27/08/2012 03:30 11,1 C 81 % 1020,1 hPa 0,0 mm 3,2 km/h (1 Bft) E-SE 112 0 min 0 W/m 8,0 C 11,1 C 4,3 km/h (1 Bft)
27/08/2012 03:40 11,1 C 81 % 1020,0 hPa 0,0 mm 1,1 km/h (1 Bft) E-NE 67 0 min 0 W/m 8,0 C 11,1 C 4,0 km/h (1 Bft)
27/08/2012 03:50 11,1 C 81 % 1019,9 hPa 0,0 mm 5,4 km/h (2 Bft) E-NE 67 0 min 0 W/m 8,0 C 11,1 C 10,1 km/h (2 Bft)
27/08/2012 04:00 10,9 C 81 % 1020,0 hPa 0,0 mm 2,5 km/h (1 Bft) SE 135 0 min 0 W/m 7,8 C 10,9 C 4,3 km/h (1 Bft)
27/08/2012 04:10 10,8 C 81 % 1019,9 hPa 0,0 mm 2,2 km/h (1 Bft) E-SE 112 0 min 0 W/m 7,7 C 10,8 C 4,0 km/h (1 Bft)
27/08/2012 04:20 10,5 C 82 % 1019,8 hPa 0,0 mm 3,6 km/h (1 Bft) E 90 0 min 0 W/m 7,6 C 10,5 C 6,5 km/h (2 Bft)
27/08/2012 04:30 10,4 C 83 % 1019,8 hPa 0,0 mm 3,2 km/h (1 Bft) E 90 0 min 0 W/m 7,6 C 10,4 C 4,3 km/h (1 Bft)
27/08/2012 04:40 10,3 C 83 % 1019,6 hPa 0,0 mm 3,2 km/h (1 Bft) N 360 0 min 0 W/m 7,5 C 10,3 C 3,2 km/h (1 Bft)
27/08/2012 04:50 10,0 C 83 % 1019,6 hPa 0,0 mm 0,0 km/h (0 Bft) E-SE 112 0 min 0 W/m 7,2 C 10,0 C 0,0 km/h (0 Bft)
27/08/2012 05:00 9,8 C 83 % 1019,5 hPa 0,0 mm 0,0 km/h (0 Bft) E-SE 112 0 min 0 W/m 7,1 C 9,8 C 0,0 km/h (0 Bft)
27/08/2012 05:10 9,7 C 83 % 1019,4 hPa 0,0 mm 0,0 km/h (0 Bft) SE 135 0 min 0 W/m 7,0 C 9,7 C 0,0 km/h (0 Bft)
27/08/2012 05:20 9,5 C 83 % 1019,3 hPa 0,0 mm 0,7 km/h (0 Bft) E 90 0 min 0 W/m 6,8 C 9,5 C 4,3 km/h (1 Bft)
27/08/2012 05:30 9,4 C 83 % 1019,2 hPa 0,0 mm 1,1 km/h (1 Bft) E-NE 67 0 min 0 W/m 6,7 C 9,4 C 3,6 km/h (1 Bft)
27/08/2012 05:40 9,2 C 84 % 1019,3 hPa 0,0 mm 0,7 km/h (0 Bft) E-SE 112 0 min 0 W/m 6,6 C 9,2 C 4,0 km/h (1 Bft)
27/08/2012 05:50 9,1 C 84 % 1019,2 hPa 0,0 mm 0,0 km/h (0 Bft) NE 45 0 min 0 W/m 6,5 C 9,1 C 0,0 km/h (0 Bft)
27/08/2012 06:00 8,9 C 84 % 1019,2 hPa 0,0 mm 0,4 km/h (0 Bft) NE 45 0 min 0 W/m 6,3 C 8,9 C 3,2 km/h (1 Bft)
27/08/2012 06:10 8,9 C 84 % 1019,3 hPa 0,0 mm 0,7 km/h (0 Bft) E-SE 112 0 min 0 W/m 6,3 C 8,9 C 3,6 km/h (1 Bft)
27/08/2012 06:20 8,9 C 85 % 1019,2 hPa 0,0 mm 2,9 km/h (1 Bft) E-SE 112 0 min 0 W/m 6,5 C 8,9 C 3,2 km/h (1 Bft)
27/08/2012 06:30 8,9 C 85 % 1019,2 hPa 0,0 mm 0,7 km/h (0 Bft) E-NE 67 0 min 0 W/m 6,5 C 8,9 C 0,7 km/h (0 Bft)
27/08/2012 06:40 8,9 C 86 % 1019,1 hPa 0,0 mm 0,7 km/h (0 Bft) E-NE 67 0 min 0 W/m 6,7 C 8,9 C 4,3 km/h (1 Bft)
27/08/2012 06:50 8,8 C 86 % 1019,1 hPa 0,0 mm 1,4 km/h (1 Bft) SE 135 0 min 0 W/m 6,6 C 8,8 C 3,6 km/h (1 Bft)
27/08/2012 07:00 8,8 C 86 % 1019,2 hPa 0,0 mm 1,4 km/h (1 Bft) E 90 0 min 0 W/m 6,6 C 8,8 C 3,6 km/h (1 Bft)
27/08/2012 07:10 8,9 C 86 % 1019,2 hPa 0,0 mm 0,7 km/h (0 Bft) E 90 0 min 0 W/m 6,7 C 8,9 C 2,9 km/h (1 Bft)
27/08/2012 07:20 9,0 C 86 % 1019,1 hPa 0,0 mm 2,9 km/h (1 Bft) E 90 0 min 0 W/m 6,8 C 9,0 C 4,3 km/h (1 Bft)
27/08/2012 07:30 8,9 C 86 % 1019,1 hPa 0,0 mm 2,2 km/h (1 Bft) E-SE 112 0 min 0 W/m 6,7 C 8,9 C 4,3 km/h (1 Bft)
27/08/2012 07:40 9,0 C 86 % 1019,0 hPa 0,0 mm 4,0 km/h (1 Bft) E 90 0 min 0 W/m 6,8 C 9,0 C 8,3 km/h (2 Bft)
27/08/2012 07:50 9,1 C 86 % 1019,0 hPa 0,0 mm 2,5 km/h (1 Bft) SE 135 0 min 0 W/m 6,9 C 9,1 C 3,6 km/h (1 Bft)
27/08/2012 08:00 9,4 C 86 % 1019,0 hPa 0,0 mm 1,8 km/h (1 Bft) E-SE 112 0 min 0 W/m 7,2 C 9,4 C 4,3 km/h (1 Bft)
27/08/2012 08:10 9,8 C 85 % 1018,9 hPa 0,0 mm 0,4 km/h (0 Bft) E-SE 112 0 min 0 W/m 7,4 C 9,8 C 3,6 km/h (1 Bft)
27/08/2012 08:20 10,2 C 84 % 1018,9 hPa 0,0 mm 2,5 km/h (1 Bft) E 90 0 min 0 W/m 7,6 C 10,2 C 4,3 km/h (1 Bft)
27/08/2012 08:30 10,9 C 84 % 1018,7 hPa 0,0 mm 3,2 km/h (1 Bft) E-SE 112 0 min 0 W/m 8,3 C 10,9 C 4,3 km/h (1 Bft)
27/08/2012 08:40 11,6 C 82 % 1018,7 hPa 0,0 mm 2,2 km/h (1 Bft) SE 135 0 min 0 W/m 8,6 C 11,6 C 2,9 km/h (1 Bft)
27/08/2012 08:50 12,4 C 80 % 1018,8 hPa 0,0 mm 3,2 km/h (1 Bft) E 90 0 min 0 W/m 9,0 C 12,4 C 6,8 km/h (2 Bft)
27/08/2012 09:00 13,1 C 78 % 1018,6 hPa 0,0 mm 1,4 km/h (1 Bft) E-SE 112 0 min 0 W/m 9,4 C 13,1 C 1,8 km/h (1 Bft)
27/08/2012 09:10 13,8 C 76 % 1018,5 hPa 0,0 mm 2,2 km/h (1 Bft) E-SE 112 0 min 0 W/m 9,6 C 13,8 C 4,3 km/h (1 Bft)
27/08/2012 09:20 14,8 C 73 % 1018,6 hPa 0,0 mm 4,0 km/h (1 Bft) E-SE 112 0 min 0 W/m 10,0 C 14,8 C 6,1 km/h (2 Bft)
27/08/2012 09:30 15,6 C 71 % 1018,7 hPa 0,0 mm 2,9 km/h (1 Bft) E 90 0 min 0 W/m 10,4 C 15,6 C 6,1 km/h (2 Bft)
27/08/2012 09:40 16,6 C 69 % 1018,8 hPa 0,0 mm 3,2 km/h (1 Bft) E-SE 112 0 min 0 W/m 10,9 C 16,6 C 6,5 km/h (2 Bft)
27/08/2012 09:50 17,8 C 67 % 1018,5 hPa 0,0 mm 1,8 km/h (1 Bft) E-SE 112 0 min 0 W/m 11,6 C 17,8 C 4,0 km/h (1 Bft)
27/08/2012 10:00 18,6 C 64 % 1018,5 hPa 0,0 mm 1,4 km/h (1 Bft) E 90 0 min 0 W/m 11,7 C 18,6 C 1,4 km/h (1 Bft)
27/08/2012 10:10 19,6 C 62 % 1018,3 hPa 0,0 mm 3,2 km/h (1 Bft) E-SE 112 0 min 0 W/m 12,1 C 19,6 C 4,0 km/h (1 Bft)
27/08/2012 10:20 20,6 C 59 % 1018,3 hPa 0,0 mm 2,5 km/h (1 Bft) SE 135 0 min 0 W/m 12,3 C 20,6 C 4,3 km/h (1 Bft)
27/08/2012 10:30 21,5 C 57 % 1018,3 hPa 0,0 mm 0,4 km/h (0 Bft) E-SE 112 0 min 0 W/m 12,6 C 21,5 C 0,4 km/h (0 Bft)
27/08/2012 10:40 22,6 C 54 % 1018,3 hPa 0,0 mm 0,0 km/h (0 Bft) E 90 0 min 0 W/m 12,8 C 22,6 C 0,0 km/h (0 Bft)
27/08/2012 10:50 23,8 C 51 % 1018,3 hPa 0,0 mm 1,1 km/h (1 Bft) E-SE 112 0 min 0 W/m 13,0 C 23,8 C 3,2 km/h (1 Bft)
27/08/2012 11:00 24,3 C 47 % 1018,3 hPa 0,0 mm 4,0 km/h (1 Bft) N-NE 22 0 min 0 W/m 12,3 C 24,3 C 6,5 km/h (2 Bft)
27/08/2012 11:10 24,8 C 45 % 1018,2 hPa 0,0 mm 0,0 km/h (0 Bft) E-SE 112 0 min 0 W/m 12,0 C 24,8 C 0,0 km/h (0 Bft)
27/08/2012 11:20 25,1 C 42 % 1018,1 hPa 0,0 mm 4,3 km/h (1 Bft) S-SE 157 0 min 0 W/m 11,3 C 25,1 C 7,2 km/h (2 Bft)
27/08/2012 11:30 25,5 C 41 % 1018,2 hPa 0,0 mm 5,8 km/h (2 Bft) E-SE 112 0 min 0 W/m 11,3 C 25,5 C 8,3 km/h (2 Bft)
27/08/2012 11:40 25,6 C 39 % 1018,0 hPa 0,0 mm 2,9 km/h (1 Bft) S 180 0 min 0 W/m 10,6 C 25,6 C 2,9 km/h (1 Bft)
27/08/2012 11:50 26,1 C 37 % 1017,8 hPa 0,0 mm 9,7 km/h (2 Bft) S 180 0 min 0 W/m 10,3 C 26,1 C 9,7 km/h (2 Bft)
27/08/2012 12:00 26,2 C 38 % 1017,6 hPa 0,0 mm 5,4 km/h (2 Bft) E-SE 112 0 min 0 W/m 10,7 C 26,2 C 7,9 km/h (2 Bft)
27/08/2012 12:10 26,2 C 37 % 1017,6 hPa 0,0 mm 5,0 km/h (1 Bft) S 180 0 min 0 W/m 10,3 C 26,2 C 7,9 km/h (2 Bft)
27/08/2012 12:20 26,3 C 38 % 1017,4 hPa 0,0 mm 2,5 km/h (1 Bft) S 180 0 min 0 W/m 10,8 C 26,3 C 7,2 km/h (2 Bft)
27/08/2012 12:30 26,8 C 37 % 1017,3 hPa 0,0 mm 3,6 km/h (1 Bft) SE 135 0 min 0 W/m 10,9 C 26,8 C 7,9 km/h (2 Bft)
27/08/2012 12:40 27,1 C 36 % 1017,2 hPa 0,0 mm 0,0 km/h (0 Bft) SE 135 0 min 0 W/m 10,7 C 27,1 C 0,0 km/h (0 Bft)
27/08/2012 12:50 27,1 C 35 % 1016,9 hPa 0,0 mm 6,1 km/h (2 Bft) NE 45 0 min 0 W/m 10,3 C 27,1 C 8,6 km/h (2 Bft)
27/08/2012 13:00 27,2 C 35 % 1016,8 hPa 0,0 mm 6,5 km/h (2 Bft) SE 135 0 min 0 W/m 10,4 C 27,2 C 9,0 km/h (2 Bft)
27/08/2012 13:10 27,3 C 35 % 1016,7 hPa 0,0 mm 6,1 km/h (2 Bft) S-SE 157 0 min 0 W/m 10,5 C 27,3 C 13,7 km/h (3 Bft)
27/08/2012 13:20 27,4 C 34 % 1016,5 hPa 0,0 mm 8,3 km/h (2 Bft) E 90 0 min 0 W/m 10,1 C 27,4 C 10,1 km/h (2 Bft)
27/08/2012 13:30 27,6 C 34 % 1016,3 hPa 0,0 mm 4,0 km/h (1 Bft) SE 135 0 min 0 W/m 10,3 C 27,6 C 4,3 km/h (1 Bft)
27/08/2012 13:40 27,6 C 33 % 1016,4 hPa 0,0 mm 5,4 km/h (2 Bft) SE 135 0 min 0 W/m 9,9 C 27,6 C 5,4 km/h (2 Bft)
27/08/2012 13:50 27,9 C 31 % 1016,2 hPa 0,0 mm 7,6 km/h (2 Bft) E-SE 112 0 min 0 W/m 9,2 C 27,9 C 10,8 km/h (2 Bft)
27/08/2012 14:00 28,1 C 31 % 1016,1 hPa 0,0 mm 10,1 km/h (2 Bft) S-SE 157 0 min 0 W/m 9,4 C 28,1 C 15,1 km/h (3 Bft)
27/08/2012 14:10 28,4 C 29 % 1016,0 hPa 0,0 mm 6,5 km/h (2 Bft) E 90 0 min 0 W/m 8,6 C 28,4 C 9,0 km/h (2 Bft)
27/08/2012 14:20 28,6 C 29 % 1016,0 hPa 0,0 mm 7,9 km/h (2 Bft) E-NE 67 0 min 0 W/m 8,8 C 28,6 C 10,4 km/h (2 Bft)
27/08/2012 14:30 28,8 C 29 % 1015,9 hPa 0,0 mm 3,6 km/h (1 Bft) S 180 0 min 0 W/m 9,0 C 28,8 C 3,6 km/h (1 Bft)
27/08/2012 14:40 28,8 C 28 % 1015,8 hPa 0,0 mm 10,8 km/h (2 Bft) S 180 0 min 0 W/m 8,5 C 28,8 C 10,8 km/h (2 Bft)
27/08/2012 14:50 28,9 C 29 % 1015,9 hPa 0,0 mm 3,6 km/h (1 Bft) S-SE 157 0 min 0 W/m 9,1 C 28,9 C 3,6 km/h (1 Bft)
27/08/2012 15:00 29,1 C 27 % 1015,8 hPa 0,0 mm 7,9 km/h (2 Bft) O-SO 247 0 min 0 W/m 8,2 C 29,1 C 7,9 km/h (2 Bft)
27/08/2012 15:10 29,3 C 28 % 1015,7 hPa 0,0 mm 6,5 km/h (2 Bft) SE 135 0 min 0 W/m 8,9 C 29,3 C 9,7 km/h (2 Bft)
27/08/2012 15:20 29,0 C 29 % 1015,5 hPa 0,0 mm 7,9 km/h (2 Bft) SO 225 0 min 0 W/m 9,1 C 29,0 C 7,9 km/h (2 Bft)
27/08/2012 15:30 29,2 C 29 % 1015,3 hPa 0,0 mm 2,5 km/h (1 Bft) S 180 0 min 0 W/m 9,3 C 29,2 C 2,9 km/h (1 Bft)
27/08/2012 15:40 29,4 C 28 % 1015,2 hPa 0,0 mm 5,8 km/h (2 Bft) S 180 0 min 0 W/m 9,0 C 29,4 C 8,3 km/h (2 Bft)
27/08/2012 15:50 29,4 C 28 % 1015,0 hPa 0,0 mm 4,0 km/h (1 Bft) SE 135 0 min 0 W/m 9,0 C 29,4 C 4,3 km/h (1 Bft)
27/08/2012 16:00 29,6 C 27 % 1014,9 hPa 0,0 mm 4,7 km/h (1 Bft) S-SE 157 0 min 0 W/m 8,6 C 29,6 C 6,8 km/h (2 Bft)
27/08/2012 16:10 29,9 C 27 % 1014,8 hPa 0,0 mm 4,7 km/h (1 Bft) N 360 0 min 0 W/m 8,9 C 29,9 C 4,7 km/h (1 Bft)
27/08/2012 16:20 30,1 C 27 % 1014,7 hPa 0,0 mm 4,3 km/h (1 Bft) S-SE 157 0 min 0 W/m 9,0 C 30,1 C 8,3 km/h (2 Bft)
27/08/2012 16:30 30,3 C 26 % 1014,5 hPa 0,0 mm 5,8 km/h (2 Bft) SE 135 0 min 0 W/m 8,6 C 30,3 C 7,6 km/h (2 Bft)
27/08/2012 16:40 30,5 C 23 % 1014,5 hPa 0,0 mm 5,4 km/h (2 Bft) SO 225 0 min 0 W/m 7,0 C 30,5 C 9,7 km/h (2 Bft)
27/08/2012 16:50 30,6 C 25 % 1014,3 hPa 0,0 mm 5,4 km/h (2 Bft) S 180 0 min 0 W/m 8,3 C 30,6 C 9,4 km/h (2 Bft)
27/08/2012 17:00 30,6 C 26 % 1014,2 hPa 0,0 mm 1,8 km/h (1 Bft) S-SO 202 0 min 0 W/m 8,9 C 30,6 C 3,6 km/h (1 Bft)
27/08/2012 17:10 30,8 C 25 % 1014,2 hPa 0,0 mm 9,0 km/h (2 Bft) S 180 0 min 0 W/m 8,5 C 30,8 C 9,7 km/h (2 Bft)
27/08/2012 17:20 30,9 C 23 % 1014,1 hPa 0,0 mm 4,0 km/h (1 Bft) SO 225 0 min 0 W/m 7,3 C 30,9 C 7,6 km/h (2 Bft)
27/08/2012 17:30 30,6 C 25 % 1014,0 hPa 0,0 mm 1,4 km/h (1 Bft) S-SE 157 0 min 0 W/m 8,3 C 30,6 C 3,6 km/h (1 Bft)
27/08/2012 17:40 30,3 C 25 % 1013,9 hPa 0,0 mm 2,2 km/h (1 Bft) S-SO 202 0 min 0 W/m 8,1 C 30,3 C 6,1 km/h (2 Bft)
27/08/2012 17:50 29,9 C 25 % 1013,7 hPa 0,0 mm 3,6 km/h (1 Bft) SO 225 0 min 0 W/m 7,7 C 29,9 C 7,6 km/h (2 Bft)
27/08/2012 18:00 29,6 C 26 % 1013,8 hPa 0,0 mm 4,0 km/h (1 Bft) SO 225 0 min 0 W/m 8,0 C 29,6 C 7,6 km/h (2 Bft)
27/08/2012 18:10 29,5 C 27 % 1013,7 hPa 0,0 mm 2,2 km/h (1 Bft) S-SO 202 0 min 0 W/m 8,5 C 29,5 C 4,0 km/h (1 Bft)
27/08/2012 18:20 29,8 C 27 % 1013,7 hPa 0,0 mm 2,5 km/h (1 Bft) SO 225 0 min 0 W/m 8,8 C 29,8 C 3,2 km/h (1 Bft)
27/08/2012 18:30 29,9 C 28 % 1013,8 hPa 0,0 mm 2,2 km/h (1 Bft) SO 225 0 min 0 W/m 9,4 C 29,9 C 4,0 km/h (1 Bft)
27/08/2012 18:40 29,8 C 28 % 1013,8 hPa 0,0 mm 2,9 km/h (1 Bft) SO 225 0 min 0 W/m 9,3 C 29,8 C 4,3 km/h (1 Bft)
27/08/2012 18:50 29,6 C 29 % 1013,8 hPa 0,0 mm 2,2 km/h (1 Bft) SO 225 0 min 0 W/m 9,7 C 29,6 C 4,3 km/h (1 Bft)
27/08/2012 19:00 29,3 C 28 % 1013,7 hPa 0,0 mm 2,2 km/h (1 Bft) S-SO 202 0 min 0 W/m 8,9 C 29,3 C 4,3 km/h (1 Bft)
27/08/2012 19:10 28,8 C 29 % 1013,7 hPa 0,0 mm 0,7 km/h (0 Bft) SO 225 0 min 0 W/m 9,0 C 28,8 C 3,6 km/h (1 Bft)
27/08/2012 19:20 28,3 C 30 % 1013,8 hPa 0,0 mm 0,0 km/h (0 Bft) SO 225 0 min 0 W/m 9,0 C 28,3 C 0,0 km/h (0 Bft)
27/08/2012 19:30 27,6 C 31 % 1013,7 hPa 0,0 mm 1,1 km/h (1 Bft) S-SO 202 0 min 0 W/m 8,9 C 27,6 C 1,1 km/h (1 Bft)
27/08/2012 19:40 27,1 C 33 % 1013,7 hPa 0,0 mm 0,4 km/h (0 Bft) S-SO 202 0 min 0 W/m 9,4 C 27,1 C 4,0 km/h (1 Bft)
27/08/2012 19:50 26,7 C 35 % 1013,6 hPa 0,0 mm 0,0 km/h (0 Bft) S-SO 202 0 min 0 W/m 10,0 C 26,7 C 0,0 km/h (0 Bft)
27/08/2012 20:00 26,3 C 36 % 1013,6 hPa 0,0 mm 0,0 km/h (0 Bft) S-SO 202 0 min 0 W/m 10,0 C 26,3 C 0,0 km/h (0 Bft)
27/08/2012 20:10 25,9 C 36 % 1013,5 hPa 0,0 mm 0,0 km/h (0 Bft) S-SO 202 0 min 0 W/m 9,7 C 25,9 C 0,0 km/h (0 Bft)
27/08/2012 20:20 25,5 C 37 % 1013,5 hPa 0,0 mm 0,0 km/h (0 Bft) S-SO 202 0 min 0 W/m 9,7 C 25,5 C 0,0 km/h (0 Bft)
27/08/2012 20:30 25,1 C 38 % 1013,6 hPa 0,0 mm 0,0 km/h (0 Bft) S-SO 202 0 min 0 W/m 9,8 C 25,1 C 0,0 km/h (0 Bft)
27/08/2012 20:40 24,6 C 39 % 1013,6 hPa 0,0 mm 0,0 km/h (0 Bft) S-SO 202 0 min 0 W/m 9,7 C 24,6 C 0,0 km/h (0 Bft)
27/08/2012 20:50 24,2 C 40 % 1013,6 hPa 0,0 mm 0,0 km/h (0 Bft) S-SO 202 0 min 0 W/m 9,7 C 24,2 C 0,0 km/h (0 Bft)
27/08/2012 21:00 23,7 C 41 % 1013,7 hPa 0,0 mm 0,0 km/h (0 Bft) S-SO 202 0 min 0 W/m 9,7 C 23,7 C 0,0 km/h (0 Bft)
27/08/2012 21:10 23,1 C 44 % 1013,8 hPa 0,0 mm 0,0 km/h (0 Bft) S-SO 202 0 min 0 W/m 10,2 C 23,1 C 0,0 km/h (0 Bft)
27/08/2012 21:20 22,6 C 45 % 1013,8 hPa 0,0 mm 0,0 km/h (0 Bft) S-SO 202 0 min 0 W/m 10,1 C 22,6 C 0,0 km/h (0 Bft)
27/08/2012 21:30 22,3 C 46 % 1013,9 hPa 0,0 mm 0,0 km/h (0 Bft) S-SO 202 0 min 0 W/m 10,1 C 22,3 C 0,0 km/h (0 Bft)
27/08/2012 21:40 21,9 C 47 % 1013,9 hPa 0,0 mm 0,0 km/h (0 Bft) S-SO 202 0 min 0 W/m 10,1 C 21,9 C 0,0 km/h (0 Bft)
27/08/2012 21:50 21,6 C 47 % 1014,0 hPa 0,0 mm 0,0 km/h (0 Bft) S-SO 202 0 min 0 W/m 9,8 C 21,6 C 0,0 km/h (0 Bft)
27/08/2012 22:00 21,3 C 48 % 1014,1 hPa 0,0 mm 0,0 km/h (0 Bft) S-SO 202 0 min 0 W/m 9,8 C 21,3 C 0,0 km/h (0 Bft)
27/08/2012 22:10 21,1 C 48 % 1014,0 hPa 0,0 mm 0,0 km/h (0 Bft) S 180 0 min 0 W/m 9,7 C 21,1 C 0,0 km/h (0 Bft)
27/08/2012 22:20 20,9 C 48 % 1014,0 hPa 0,0 mm 0,0 km/h (0 Bft) SE 135 0 min 0 W/m 9,5 C 20,9 C 0,0 km/h (0 Bft)
27/08/2012 22:30 20,8 C 49 % 1014,1 hPa 0,0 mm 0,0 km/h (0 Bft) SE 135 0 min 0 W/m 9,7 C 20,8 C 0,0 km/h (0 Bft)
27/08/2012 22:40 20,6 C 49 % 1014,1 hPa 0,0 mm 0,0 km/h (0 Bft) SE 135 0 min 0 W/m 9,5 C 20,6 C 0,0 km/h (0 Bft)
27/08/2012 22:50 20,4 C 50 % 1014,1 hPa 0,0 mm 0,0 km/h (0 Bft) SE 135 0 min 0 W/m 9,6 C 20,4 C 0,0 km/h (0 Bft)
27/08/2012 23:00 20,1 C 51 % 1014,3 hPa 0,0 mm 0,0 km/h (0 Bft) SE 135 0 min 0 W/m 9,6 C 20,1 C 0,0 km/h (0 Bft)
27/08/2012 23:10 19,8 C 53 % 1014,3 hPa 0,0 mm 0,0 km/h (0 Bft) SE 135 0 min 0 W/m 9,9 C 19,8 C 0,0 km/h (0 Bft)
_ Min-Heure 07:00 17:20 20:20 - 23:10 - - - - 06:10 07:00 23:10
Minimum _ 8,8 C 23 % 1013,5 hPa - 0,0 km/h (0 Bft) - - - - 6,3 C 8,8 C 0,0 km/h (0 Bft)
_ Max-Heure 17:20 08:00 00:10 23:10 14:40 - - 23:10 23:10 10:50 17:20 14:00
Maximum _ 30,9 C 86 % 1021,5 hPa 0,0 mm 10,8 km/h
S (2 Bft)
- - 0 min 0 W/m 13,0 C 30,9 C 15,1 km/h
S-SE (3 Bft)
Moyenne _ 20,0 C 55 % 1017,2 hPa #0,0 mm 2,4 km/h (1 Bft) E-SE - #0 min. 0 W/m 8,9 C 20,0 C 3,8 km/h (1 Bft)
Saint Bonnet de Bellac- Haute Vienne - France